Weather History for KEED - January, 2014

Change the Weather History Date:

Thursday, January 2, 2014

  Actual Average Record
Temperature  
Mean Temperature 60 °F -  
Max Temperature 71 °F 60 °F 75 °F (1981)
Min Temperature 48 °F 39 °F 26 °F (1960)
Degree Days  
Heating Degree Days 6    
Growing Degree Days 10 (Base 50)    
Moisture  
Dew Point 24 °F    
Average Humidity 28    
Maximum Humidity 41    
Minimum Humidity 14    
Precipitation  
Precipitation 0.00 in - - ()
Sea Level Pressure  
Sea Level Pressure 30.10 in    
Wind  
Wind Speed 7 mph (NW)    
Max Wind Speed 12 mph    
Max Gust Speed -    
Visibility 10 miles    
Events      
Averages and records for this station are not official NWS values.
T = Trace of Precipitation, MM = Missing Value Source: NWS Daily Summary

Daily Weather History Graph

Daily Weather History Graph

Search for Another Location

Airport or City:

Trip Planner

Search our weather history database for the weather conditions in past years. The results will help you decide how hot, cold, wet, or windy it might be!

Date:

Astronomy

Jan. 02, 2014 Rise Set
Actual Time 6:46 AM PST 4:39 PM PST
Civil Twilight 6:18 AM PST 5:07 PM PST
Nautical Twilight 5:46 AM PST 5:38 PM PST
Astronomical Twilight 5:16 AM PST 6:09 PM PST
Moon 7:35 AM PST 6:35 PM PST
Length of Visible Light 10h 49m
Length of Day
9h 53m
Waxing Crescent, 3% of the Moon is Illuminated
Jan 2
Waxing Crescent
Jan 7
First Quarter
Jan 15
Full
Jan 23
Last Quarter
Jan 30
New

Hourly Weather History & Observations

Time (PST) Temp. Dew Point Humidity Pressure Visibility Wind Dir Wind Speed Gust Speed Precip Events Conditions
12:56 AM 57.9 °F 25.0 °F 28% 30.12 in 10.0 mi NW 9.2 mph - N/A   Clear
1:56 AM 55.9 °F 25.0 °F 30% 30.12 in 10.0 mi NW 9.2 mph - N/A   Clear
2:56 AM 55.9 °F 25.0 °F 30% 30.13 in 10.0 mi North 8.1 mph - N/A   Clear
3:56 AM 53.1 °F 25.0 °F 34% 30.14 in 10.0 mi West 5.8 mph - N/A   Clear
4:56 AM 48.9 °F 26.1 °F 41% 30.15 in 10.0 mi West 8.1 mph - N/A   Clear
5:56 AM 54.0 °F 25.0 °F 33% 30.15 in 10.0 mi NNW 5.8 mph - N/A   Clear
6:56 AM 52.0 °F 25.0 °F 35% 30.16 in 10.0 mi NW 5.8 mph - N/A   Clear
7:56 AM 55.9 °F 26.1 °F 32% 30.17 in 10.0 mi NW 4.6 mph - N/A   Clear
8:56 AM 59.0 °F 26.1 °F 28% 30.18 in 10.0 mi North 6.9 mph - N/A   Clear
9:56 AM 62.1 °F 25.0 °F 24% 30.18 in 10.0 mi NNE 11.5 mph - N/A   Clear
10:56 AM 64.0 °F 26.1 °F 24% 30.15 in 10.0 mi NNE 6.9 mph - N/A   Clear
11:56 AM 66.0 °F 26.1 °F 22% 30.11 in 10.0 mi Calm Calm - N/A   Clear
12:56 PM 68.0 °F 26.1 °F 21% 30.07 in 10.0 mi Variable 3.5 mph - N/A   Clear
1:56 PM 71.1 °F 24.1 °F 17% 30.05 in 10.0 mi North 5.8 mph - N/A   Clear
2:56 PM 71.1 °F 19.9 °F 14% 30.04 in 10.0 mi North 11.5 mph - N/A   Clear
3:56 PM 70.0 °F 21.9 °F 16% 30.03 in 10.0 mi North 8.1 mph - N/A   Clear
4:56 PM 64.0 °F 23.0 °F 21% 30.04 in 10.0 mi WNW 5.8 mph - N/A   Clear
5:56 PM 59.0 °F 23.0 °F 25% 30.04 in 10.0 mi WNW 5.8 mph - N/A   Clear
6:56 PM 55.9 °F 23.0 °F 28% 30.05 in 10.0 mi WNW 5.8 mph - N/A   Clear
7:56 PM 55.0 °F 23.0 °F 29% 30.05 in 10.0 mi West 9.2 mph - N/A   Clear
8:56 PM 52.0 °F 23.0 °F 32% 30.05 in 10.0 mi West 6.9 mph - N/A   Clear
9:56 PM 52.0 °F 23.0 °F 32% 30.05 in 10.0 mi West 8.1 mph - N/A   Clear
10:56 PM 52.0 °F 21.9 °F 31% 30.05 in 10.0 mi WNW 4.6 mph - N/A   Clear
11:56 PM 48.0 °F 23.0 °F 37% 30.04 in 10.0 mi West 3.5 mph - N/A   Clear